Regional Weather Roundup
Issued by NWS

Home | Current Version | Previous Version | Text Only | Print | Product List | Glossary Off
Versions: 1 2 3 4 5 6 7 8 9 10 11 12 13 14 15 16 17 18 19 20 21 22 23 24 25 26 27 28 29 30 31 32 33 34 35 36 37 38 39 40 41 42 43 44 45 46 47 48

000
ASUS43 KDMX 072207
RWRIA

WEATHER ROUNDUP FOR IOWA
NATIONAL WEATHER SERVICE DES MOINES IA
500 PM CDT TUE JUL 07 2015

NOTE: "FAIR" INDICATES FEW OR NO CLOUDS BELOW 12,000 FEET WITH NO
SIGNIFICANT WEATHER AND/OR OBSTRUCTIONS TO VISIBILITY.

* - THESE STATIONS ARE NOT NWS STATIONS...THUS NOT UNDER NWS
QUALITY CONTROL.  THEY ALSO DO NOT REPORT WEATHER SUCH
AS PRECIPITATION OR FOG.

IAZ001>003-012>014-020>022-031>034-043>046-072300-
   NORTHWEST IOWA

CITY           SKY/WX    TMP DP  RH WIND       PRES   REMARKS
CARROLL *      SUNNY     70  50  49 NE8G15    30.11S
CHEROKEE *     SUNNY     70  52  52 NE7       30.12F
DENISON *      MOSUNNY   68  52  56 E7        30.10F
LE MARS *      SUNNY     70  50  49 N8        30.13F
ORANGE CITY *  SUNNY     68  48  49 N6        30.13F
SHELDON *      SUNNY     68  50  52 NE8G14    30.12F
SIOUX CITY     SUNNY     72  49  44 E8        30.12F
SPENCER        SUNNY     70  49  47 N10       30.13F
STORM LAKE *   SUNNY     68  50  52 NE10      30.13F
$$

IAZ055>058-069>071-079>083-090>094-072300-
   SOUTHWEST IOWA

CITY           SKY/WX    TMP DP  RH WIND       PRES   REMARKS
ATLANTIC *     SUNNY     70  50  49 NE8       30.10F
AUDUBON *      SUNNY     72  52  49 NE8       30.12S
CLARINDA *     SUNNY     73  63  68 NE5G15    30.10F
COUNCIL BLFS * MOSUNNY   72  54  53 N10       30.11S
CRESTON *      MOSUNNY   70  52  52 NE9       30.10S HAZE
HARLAN  *      SUNNY     70  54  56 NE7G14    30.14S
LAMONI         MOSUNNY   72  56  57 NE7       30.08S
RED OAK *      MOSUNNY   72  50  46 NE6G13    30.10S
SHENANDOAH *   SUNNY     73  54  49 NE7G15    30.09F
$$

IAZ047>049-059>061-072>074-084-072300-
   CENTRAL IOWA

CITY           SKY/WX    TMP DP  RH WIND       PRES   REMARKS
AMES           PTSUNNY   69  51  52 NE8       30.10S
ANKENY *       PTSUNNY   70  54  56 NE9       30.09F
CHARITON *     PTSUNNY   70  55  60 N10G16    30.08F
DES MOINES     MOSUNNY   73  50  44 E7        30.08F
GRINNELL*      MOSUNNY   68  54  60 N9        30.09F
KNOXVILLE *    MOSUNNY   70  50  49 NE8G14    30.07F
MARSHALLTOWN   MOSUNNY   70  53  54 N9        30.09F
PELLA *        MOSUNNY   72  57  60 N3        30.09F
PERRY *          N/A     70  52  52 NE3       30.10S
$$

IAZ004>006-015-016-023>025-035-036-072300-
   NORTH CENTRAL IOWA

CITY           SKY/WX    TMP DP  RH WIND       PRES   REMARKS
ALGONA *       SUNNY     66  50  55 NE9G15    30.13S
CLARION *      MOSUNNY   68  50  52 NE10G16   30.12S
ESTHERVILLE    MOSUNNY   66  50  56 NE10      30.14S
FORT DODGE *   MOSUNNY   68  50  52 N6G18     30.12S
MASON CITY     MOSUNNY   68  50  52 NE10      30.13S
FOREST CITY *  MOSUNNY   64  48  55 NE5       30.12S
IOWA FALLS *   PTSUNNY   68  50  52 NE8       30.12S
$$

IAZ007>011-017>019-026>030-037>042-050>054-066-072300-
   NORTHEAST IOWA

CITY           SKY/WX    TMP DP  RH WIND       PRES   REMARKS
CEDAR RAPIDS   MOSUNNY   70  53  54 N8        30.07S
CHARLES CITY * SUNNY     66  50  55 N9G16     30.12S
CLINTON *      CLOUDY    70  55  60 N8        30.09S
DECORAH *        N/A    N/A N/A N/A MISG        N/A
DUBUQUE        PTSUNNY   67  52  58 N8        30.08S
MONTICELLO *   MOSUNNY   70  54  56 VRB3G12   30.08S
OELWEIN *      PTSUNNY   68  52  56 NE8G15    30.11
WATERLOO       MOSUNNY   71  51  49 N12       30.09S
$$

IAZ064-065-067-068-078-072300-
   EAST CENTRAL IOWA

CITY           SKY/WX    TMP DP  RH WIND       PRES   REMARKS
DAVENPORT      MOSUNNY   71  55  56 N6        30.06S
IOWA CITY      PTSUNNY   73  54  51 N9        30.08R
MT. PLEASANT * MOSUNNY   75  50  41 NE10      30.06S
MUSCATINE *    SUNNY     73  54  49 NE9       30.06F
QUAD CITIES    PTSUNNY   72  54  53 N7        30.05S HAZE
$$

IAZ062-063-075>077-085>089-095>099-072300-
   SOUTHEAST IOWA

CITY           SKY/WX    TMP DP  RH WIND       PRES   REMARKS
BURLINGTON     MOSUNNY   72  57  59 N9        30.04F HAZE
FAIRFIELD *    PTSUNNY   72  55  56 N8        30.06S
FORT MADISON * MOSUNNY   72  59  64 N7        30.05F HAZE
KEOKUK *       PTSUNNY   73  59  60 N10       30.03F
OSKALOOSA *    PTSUNNY   70  55  60 N6        30.07F
CENTERVILLE *  MOSUNNY   72  57  60 N8        30.08F
OTTUMWA        MOSUNNY   73  55  53 N9        30.05F
WASHINGTON *   MOSUNNY   72  59  64 NE9       30.07F
$$

ABBREVIATIONS USED IN REMARKS
   TC - TEMPERATURES IN CELSIUS
  WCI - WIND CHILL INDEX
   HX - HEAT INDEX
  VSB - VISIBILITY
$$



USA.gov is the U.S. government's official web portal to all federal, state and local government web resources and services.